Location: Diebersbach
(48.5163°N, 8.0558°E)
Time: 21:35:00
(UTC+00:00)

USA 229 - Pass Details

Date: 26 October 2021
Orbit: 946 x 1266 km, 63.4° (Epoch: 25 November)

Event Time Altitude Azimuth Distance (km) Brightness Sun altitude
Rises 21:30:35 0° 291° (WNW) 3,775 7.1 -48.6°
Reaches altitude 10° 21:33:45 10° 306° (NW) 2,874 6.4 -48.9°
Enters shadow 21:35:43 17° 320° (NW) 2,433 6.0 -49.1°
